This is the latest recevied weather packets stored in our database for station/object OE2ATN. If no packets are shown the sender has not sent any weather packets the latest 10 day(s).
| Time | Temp. | Humidity | Pressure | Rain* | Wind** | Luminosity | Snow |
|---|---|---|---|---|---|---|---|
| 1777893266 | 23.89° C | 33% | 1020.2 hPa | 0 mm | - | - | - |
| 1777892966 | 23.89° C | 30% | 1020.4 hPa | 0 mm | - | - | - |
| 1777892665 | 23.33° C | 31% | 1020.5 hPa | 0 mm | - | - | - |
| 1777892365 | 23.33° C | 34% | 1020.6 hPa | 0 mm | - | - | - |
| 1777892064 | 23.33° C | 32% | 1020.6 hPa | 0 mm | - | - | - |
| 1777891765 | 23.33° C | 31% | 1020.8 hPa | 0 mm | - | - | - |
| 1777891466 | 23.33° C | 32% | 1021 hPa | 0 mm | - | - | - |
| 1777891165 | 23.33° C | 31% | 1021 hPa | 0 mm | - | - | - |
| 1777890864 | 23.33° C | 36% | 1021.1 hPa | 0 mm | - | - | - |
| 1777890564 | 22.78° C | 35% | 1021.2 hPa | 0 mm | - | - | - |
| 1777890264 | 22.78° C | 33% | 1021.3 hPa | 0 mm | - | - | - |
| 1777889965 | 22.22° C | 36% | 1021.4 hPa | 0 mm | - | - | - |
| 1777889666 | 22.22° C | 35% | 1021.4 hPa | 0 mm | - | - | - |
| 1777889365 | 21.67° C | 37% | 1021.5 hPa | 0 mm | - | - | - |
| 1777889064 | 21.67° C | 42% | 1021.5 hPa | 0 mm | - | - | - |
| 1777888764 | 21.67° C | 43% | 1021.7 hPa | 0 mm | - | - | - |
| 1777888464 | 21.67° C | 43% | 1021.8 hPa | 0 mm | - | - | - |
| 1777888163 | 21.11° C | 41% | 1021.7 hPa | 0 mm | - | - | - |
| 1777887863 | 20.56° C | 47% | 1021.8 hPa | 0 mm | - | - | - |
| 1777887563 | 20.56° C | 45% | 1021.9 hPa | 0 mm | - | - | - |
| 1777887264 | 20° C | 48% | 1021.9 hPa | 0 mm | - | - | - |
| 1777886963 | 20° C | 52% | 1022 hPa | 0 mm | - | - | - |
| 1777886663 | 19.44° C | 49% | 1022.1 hPa | 0 mm | - | - | - |
| 1777886362 | 19.44° C | 48% | 1022.1 hPa | 0 mm | - | - | - |
| 1777886063 | 19.44° C | 48% | 1022.2 hPa | 0 mm | - | - | - |
* Rain latest hour (hover to see other rain measurements)
** Current wind speed in m/s (hover to see current wind gust speed)